www.pogodaiklimat.ru

Погода и климат >> Архив погоды >> Россия >> Ямало-Ненецкий АО >> Имени Попова


АРХИВ ПОГОДЫ в Имени Попова

Время (UTC), дата Ветер
(напр.,м/с)
 
Видим.   Явления Облачность Т
(С)
Тd
(С)
f
(%)
Тe
(С)
Тes
(С)
Комфортность P
(гПа)
Po
(гПа)
Тmin
(С)
Tmax
(С)
R
(мм)
R24
(мм)
S
(см)
18 14.07 В 7
{10}
10 км слаб. дождь 10/10 210 м
[Frnb Ns]
+3.3 +3.0 98 -3 -3 1013.9 1013.2
21 14.07 СВ 6
{10}
10 км слаб. дождь 10/0 500 м
[As op]
+3.9 +3.6 98 -2 -2 1012.7 1012.0
00 15.07 СВ 8-10
{11}
4000 м дождь 10/10 240 м
[Frnb Ns]
+4.6 +4.5 99 -2 -2 1011.6 1010.9
03 15.07 СВ 8-11
{11}
20 км {дождь} 10/10 210 м
[St]
+5.0 +4.7 98 -1 -1 1010.2 1009.5 +2.8 2
06 15.07 СВ 9-11
{12}
500 м сильн. морось {дождь} туман ?/? +4.7 +4.5 99 -2 -2 1009.7 1009.0
15 15.07 С 6 500 м слаб. морось {туман} туман ?/? +3.6 +3.4 99 -2 -2 1011.5 1010.8 +5.8 1
18 15.07 С 9-10
{11}
2000 м морось {туман} 10/10 180 м
[St]
+3.9 +3.7 99 -3 -3 1013.3 1012.6
21 15.07 С 7
{11}
20 км {морось} 10/10 800 м
[Sc]
+3.8 +3.7 99 -2 -2 1015.3 1014.6
00 16.07 С 7 20 км {морось} 9/0
[Ac trans]
+4.6 +4.2 97 -1 -1 1017.8 1017.1
03 16.07 С 5 20 км ясно +6.1 +5.2 94 +2 +4 1019.9 1019.2 +3.5
06 16.07 С 7 20 км 3/0
[Ci fib]
+7.4 +5.8 90 +3 +5 1021.5 1020.8
09 16.07 СВ 7 20 км 1/0
[Ci fib]
+8.1 +5.4 83 +4 +6 1023.4 1022.7
12 16.07 СВ 7 20 км 3/0
[Ci fib]
+8.4 +5.0 79 +4 +5 1024.6 1023.9
15 16.07 В 6 20 км 3/0
[Ci fib]
+7.7 +3.6 75 +4 +4 1024.9 1024.2 +8.8
18 16.07 СВ 6 20 км 1/0
[Ac trans]
+5.3 +3.8 90 0 0 1025.3 1024.6
21 16.07 В 5 20 км 3/0
[Ac trans Ci fib]
+4.3 +3.6 95 -1 -1 1025.3 1024.6
00 17.07 В 7 20 км 10/0
[Ac trans Ci fib]
+5.5 +3.7 88 0 0 1025.9 1025.2
03 17.07 В 8-10
{12}
20 км 10/0
[Cc]
+7.6 +4.2 79 +3 +3 1024.4 1023.7 +4.1
06 17.07 В 8
{13}
20 км 10/0
[Cs]
+8.7 +5.9 83 +4 +5 1023.7 1023.0
09 17.07 В 9-12
{12}
20 км 8/0
[Ci fib]
+11.1 +7.6 79 +7 +8 1023.1 1022.4
12 17.07 В 10-13
{14}
20 км 1/0
[Ci fib]
+11.8 +6.9 72 +8 +8 1022.1 1021.5
15 17.07 В 8-12
{14}
20 км 3/0
[Ci fib]
+10.4 +6.4 76 +7 +7 1021.4 1020.8 +12.1
18 17.07 В 7
{11}
20 км 8/0
[Ci]
+8.2 +5.8 85 +4 +4 1020.9 1020.2
21 17.07 ЮВ 6 20 км 10/0
[Cc]
+8.1 +6.3 88 +4 +4 1020.2 1019.5
00 18.07 ЮВ 6 20 км 10/0
[Ci]
+10.8 +7.5 80 +8 +8 1020.6 1019.9
03 18.07 ЮВ 7 20 км 8/0
[Cs]
+13.3 +9.0 75 +11 +12 1020.4 1019.7 +7.5
06 18.07 ЮВ 8 20 км 9/0
[Ci fib]
+16.5 +10.2 66 +15 +16 1019.6 1018.9
09 18.07 В 9-12
{14}
20 км 9/0
[Ci fib]
+16.9 +10.9 68 +15 +16 1018.8 1018.1
12 18.07 В 5
{12}
20 км 6/0
[Ci fib]
+16.2 +10.9 71 +15 +17 1018.3 1017.7
15 18.07 В 4 20 км 9/0
[Ac trans Cc]
+14.2 +10.6 79 +13 +13 1017.6 1017.0 +17.1
18 18.07 С 2 20 км 9/0
[Ac cast Cc]
+10.6 +8.7 88 +9 +9 1017.3 1016.7
21 18.07 СВ 2 20 км 9/0
[Ac lent]
+7.6 +6.7 94 +5 +5 1017.0 1016.3
00 19.07 С 4 20 км 9/0
[Ac cast]
+5.9 +5.0 94 +2 +2 1017.2 1016.5
03 19.07 С 5 20 км 10/0
[Ac cast Cc]
+8.6 +7.0 90 +5 +6 1017.1 1016.4 +5.5
06 19.07 СВ 8-10
{10}
20 км 10/0
[Ac trans Ci fib]
+8.3 +7.2 93 +4 +4 1017.6 1016.9
09 19.07 СВ 12-15
{15}
4000 м дымка 10/10 210 м
[St]
+7.8 +7.2 96 +2 +2 1018.1 1017.4
12 19.07 СВ 12-16
{17}
2000 м дымка 10/10 210 м
[St]
+6.8 +6.2 96 0 0 1018.5 1017.8
15 19.07 СВ 12-16
{16}
20 км 10/3 200 м
[St Ac und]
+6.8 +5.9 94 0 0 1018.3 1017.6 +11.0
18 19.07 СВ 11-15
{16}
20 км 10/10 270 м
[St]
+6.2 +5.4 95 -0 -0 1018.3 1017.6
21 19.07 В 11-15
{16}
20 км {дождь} 10/10 270 м
[St]
+5.9 +5.2 95 -1 -1 1016.3 1015.6
00 20.07 В 13-16
{16}
20 км {дождь} 10/10 240 м
[St]
+6.2 +5.4 95 -1 -1 1014.3 1013.7
03 20.07 В 14-18
{18}
20 км в посл. час гроза {ливн. осадки} 10/10 210 м
[Cu med, cong]
+6.7 +6.2 97 -0 -0 1011.7 1011.0 +5.6 4
06 20.07 СВ 4
{18}
4000 м гроза, ливневой дождь 9/9 400 м
[Cb cap]
+6.7 +6.6 99 +3 +3 1010.9 1010.2
09 20.07 СВ 12-15
{15}
20 км в посл. час гроза {ливн. осадки} 9/9 1200 м
[Cb cap]
+6.2 +5.9 98 -1 -1 1009.8 1009.2
12 20.07 В 12 20 км {гроза, ливн. осадки} 10/0
[Ac As]
+8.5 +7.6 94 +3 +3 1008.0 1007.3
15 20.07 ЮВ 4
{15}
20 км 8/0
[Ac trans Ci fib]
+11.2 +10.1 93 +9 +9 1008.0 1007.3 19
18 20.07 Ю 6 200 м туман ?/? +5.9 +5.7 99 +1 +1 1008.3 1007.7
21 20.07 Ю 5 1000 м дымка {туман} 10/10 150 м
[St]
+4.3 +4.2 99 -1 -1 1008.6 1007.9
00 21.07 Ю 7 2000 м в посл. час туман 10/10 150 м
[St]
+6.1 +6.0 99 +1 +1 1008.7 1008.0
03 21.07 Ю 7 200 м слаб. морось {туман} туман ?/? +8.5 +8.3 99 +4 +4 1008.0 1007.3 +3.8 0.3
06 21.07 Ю 7
{10}
1000 м в посл. час туман 10/10 270 м
[St]
+5.3 +5.3 100 -0 -0 1007.5 1006.8
09 21.07 Ю 9-12
{12}
20 км в посл. час туман 10/10 960 м
[Sc]
+4.4 +4.1 98 -2 -2 1007.7 1007.0

 

Местоположение метеостанции Имени Попова (Ямало-Ненецкий АО, Россия): широта 73.33 долгота 70.05 высота над уровнем моря 6 м.

В архиве по умолчанию представлена погода в Имени Попова за последнюю неделю. Архивные данные за месяц целиком и за предыдущие месяцы, начиная с января 2011 года, Вы можете получить, выбрав интересующий диапазон дат из раскрывающегося списка и нажав кнопку "Ввод!".


*Определитесь, кто Вы:
робот инопланетянин человек

Внимание! Время в таблицах - всемирное. Для получения местного времени необходимо прибавить поправку, которая равна 5 ч.

Смотрите также архив погоды в соседних городах и на ближайших метеорологических станциях:

Погода в Тамбее (Ямало-Ненецкий АО, Россия) (214 км)
Погода на Острове Диксон (Красноярский край, Россия) (329 км)
Погода в Сеяхе (Ямало-Ненецкий АО, Россия) (362 км)
Погода в Гыде (Ямало-Ненецкий АО, Россия) (396 км)
Погода на Мысе Желания (Архангельская область, Россия) (405 км)
Погода в Марресале (Ямало-Ненецкий АО, Россия) (418 км)
Погода в Сопочной Карге (Красноярский край, Россия) (450 км)
Погода на Островах Известий ЦИК (Красноярский край, Россия) (477 км)
Погода в Усть-Каре (Ненецкий АО, Россия) (489 км)
Погода в Амдерме (Ненецкий АО, Россия) (493 км)

Пояснения к столбцам:

Ветер - указаны скорость ветра в м/с - средняя за 10 мин, порывы в срок и между сроками (в фигурных скобках) и направление, откуда дует ветер: С - северный, СВ - северо-восточный, В - восточный, ЮВ - юго-восточный, Ю - южный, ЮЗ - юго-западный, З - западный, СЗ - северо-западный.
Видимость - горизонтальная дальность видимости в метрах или километрах. При видимости от 1 до 10 км при отсутствии осадков обычно наблюдается дымка, при ухудшении видимости до 1 км и менее - туман. В сухую погоду видимость может ухудшаться дымом, пылью или мглою.
Явления - указаны атмосферные явления, наблюдавшиеся в срок или в последний час перед сроком; фигурными скобками обозначены явления, наблюдавшиеся между сроками (за 1-3 часа до срока); квадратными скобками обозначены град или гололедные отложения с указанием их диаметра в мм.
Облачность - указаны через наклонную черту общая и нижняя облачность в баллах и высота нижней границы облаков в метрах; квадратными скобками обозначены формы облаков: Ci - перистые, Cs - перисто-слоистые, Cc - перисто-кучевые, Ac - высококучевые, As - высокослоистые, Sc - слоисто-кучевые, Ns - слоисто-дождевые, Cu - кучевые, Cb - кучево-дождевые. Подробнее классификацию облаков см. в Атласе облаков (PDF).
T - Температура воздуха - температура, измеренная на высоте 2 м над землей.
Td - Температура точки росы - температура, при понижении до которой содержащийся в воздухе водяной пар достигнет насыщения.
f - Относительная влажность воздуха - влажноcть воздуха, измеренная на высоте 2 м над землей.
Te - Эффективная температура - температура, которую ощущает одетый по сезону человек в тени. Характеристика душности погоды. При расчете учитывается влияние влажности воздуха и скорости ветра на теплоощущения человека.
Tes - Эффективная температура на солнце - температура, которую ощущает человек, с поправкой на солнечный нагрев. Характеристика знойности погоды. Зависит от высоты солнца над горизонтом, облачности и скорости ветра. Ночью, в пасмурную погоду, а также при ветре 12 м/с и более поправка равна нулю.
P - Атмосферное давление - приведенное к уровню моря атмосферное давление.
Po - Атмосферное давление - измеренное на уровне метеостанции атмосферное давление.
Tmin - Минимальная температура - минимум температуры воздуха на высоте 2 м над землей.
Tmax - Максимальная температура - максимум температуры воздуха на высоте 2 м над землей.
R - Количество осадков - Количество выпавших осадков за период времени, мм. При наведении курсора мыши на число - период времени, за который выпало указанное количество осадков.
R24 - Количество осадков - Количество выпавших осадков за 24 часа, мм.
S - Снежный покров - Высота снежного покрова, см. При наведении курсора мыши на число - состояние снежного покрова и степень покрытия местности в баллах.